Meteo pe oră la Bolshie Kalmyki

Astăzi, 9 Mai, Duminică

Timp Temperatura Precipitaţii Vânt Presiune Umiditate
00:00 +7°C° 0 mm 5 m/s 729 mmHg 94%
01:00 +6°C° 0 mm 4 m/s 730 mmHg 94%
02:00 +6°C° 0 mm 4 m/s 730 mmHg 94%
03:00 +5°C° 0 mm 4 m/s 731 mmHg 94%
04:00 +5°C° 0.1 mm 5 m/s 731 mmHg 95%
05:00 +3°C° 0.1 mm 5 m/s 732 mmHg 95%
06:00 +2°C° 0.1 mm 6 m/s 732 mmHg 96%
07:00 +2°C° 0.1 mm 6 m/s 733 mmHg 96%
08:00 +2°C° 0.1 mm 7 m/s 733 mmHg 96%
09:00 0°C° 0 mm 7 m/s 734 mmHg 96%
10:00 0°C° 0.1 mm 7 m/s 735 mmHg 95%
11:00 0°C° 0.1 mm 7 m/s 735 mmHg 95%
12:00 +2°C° 0.1 mm 7 m/s 736 mmHg 95%
13:00 +2°C° 0.2 mm 7 m/s 737 mmHg 92%
14:00 +3°C° 0.2 mm 7 m/s 737 mmHg 88%
15:00 +3°C° 0.2 mm 7 m/s 738 mmHg 85%
16:00 +4°C° 0.1 mm 7 m/s 739 mmHg 81%
17:00 +5°C° 0.1 mm 6 m/s 739 mmHg 78%
18:00 +6°C° 0.1 mm 5 m/s 739 mmHg 74%
19:00 +5°C° 0 mm 5 m/s 740 mmHg 76%
20:00 +5°C° 0 mm 4 m/s 741 mmHg 79%
21:00 +4°C° 0 mm 3 m/s 741 mmHg 81%
22:00 +3°C° 0 mm 3 m/s 742 mmHg 83%
23:00 +3°C° 0 mm 3 m/s 742 mmHg 85%

Mâine, 10 Mai, Luni

Timp Temperatura Precipitaţii Vânt Presiune Umiditate
00:00 +2°C° 0 mm 3 m/s 743 mmHg 86%
01:00 +2°C° 0 mm 3 m/s 743 mmHg 85%
02:00 +1°C° 0 mm 4 m/s 743 mmHg 84%
03:00 0°C° 0 mm 4 m/s 744 mmHg 83%
04:00 +1°C° 0 mm 4 m/s 744 mmHg 82%
05:00 +1°C° 0 mm 4 m/s 745 mmHg 82%
06:00 +1°C° 0 mm 4 m/s 745 mmHg 81%
07:00 +3°C° 0 mm 5 m/s 746 mmHg 73%
08:00 +4°C° 0 mm 6 m/s 746 mmHg 66%
09:00 +7°C° 0 mm 6 m/s 746 mmHg 58%
10:00 +8°C° 0 mm 7 m/s 746 mmHg 55%
11:00 +9°C° 0 mm 7 m/s 746 mmHg 52%
12:00 +10°C° 0 mm 7 m/s 746 mmHg 49%
13:00 +10°C° 0 mm 7 m/s 746 mmHg 49%
14:00 +10°C° 0 mm 7 m/s 746 mmHg 48%
15:00 +11°C° 0 mm 7 m/s 746 mmHg 48%
16:00 +11°C° 0 mm 7 m/s 746 mmHg 52%
17:00 +10°C° 0 mm 7 m/s 746 mmHg 55%
18:00 +10°C° 0 mm 6 m/s 746 mmHg 59%
19:00 +9°C° 0 mm 6 m/s 746 mmHg 61%
20:00 +8°C° 0 mm 6 m/s 746 mmHg 63%
21:00 +7°C° 0 mm 6 m/s 746 mmHg 66%
22:00 +7°C° 0 mm 6 m/s 746 mmHg 67%
23:00 +5°C° 0 mm 6 m/s 746 mmHg 69%

Poimâine, 11 Mai, Marţi

Timp Temperatura Precipitaţii Vânt Presiune Umiditate
00:00 +5°C° 0 mm 6 m/s 746 mmHg 71%
01:00 +5°C° 0 mm 6 m/s 746 mmHg 73%
02:00 +4°C° 0 mm 6 m/s 746 mmHg 76%
03:00 +4°C° 0 mm 6 m/s 746 mmHg 78%
04:00 +4°C° 0 mm 6 m/s 746 mmHg 80%
05:00 +5°C° 0 mm 6 m/s 746 mmHg 81%
06:00 +5°C° 0 mm 6 m/s 746 mmHg 83%
07:00 +7°C° 0 mm 6 m/s 746 mmHg 80%
08:00 +9°C° 0 mm 7 m/s 746 mmHg 78%
09:00 +10°C° 0 mm 8 m/s 746 mmHg 75%
10:00 +12°C° 0 mm 8 m/s 746 mmHg 73%
11:00 +15°C° 0 mm 7 m/s 746 mmHg 70%
12:00 +16°C° 0 mm 7 m/s 746 mmHg 68%
13:00 +16°C° 0.1 mm 7 m/s 746 mmHg 70%
14:00 +17°C° 0.1 mm 7 m/s 746 mmHg 71%
15:00 +17°C° 0.1 mm 6 m/s 746 mmHg 73%
16:00 +16°C° 0.4 mm 6 m/s 746 mmHg 77%
17:00 +15°C° 0.4 mm 5 m/s 746 mmHg 81%
18:00 +15°C° 0.4 mm 4 m/s 746 mmHg 85%
19:00 +13°C° 0.2 mm 3 m/s 746 mmHg 87%
20:00 +13°C° 0.2 mm 2 m/s 746 mmHg 90%
21:00 +12°C° 0.2 mm 2 m/s 746 mmHg 93%
22:00 +12°C° 0 mm 2 m/s 746 mmHg 92%
23:00 +11°C° 0 mm 1 m/s 746 mmHg 91%

12 Mai, Miercuri

Timp Temperatura Precipitaţii Vânt Presiune Umiditate
00:00 +11°C° 0 mm 1 m/s 746 mmHg 90%
01:00 +10°C° 0.2 mm 2 m/s 746 mmHg 90%
02:00 +9°C° 0.2 mm 2 m/s 746 mmHg 90%
03:00 +9°C° 0.2 mm 2 m/s 746 mmHg 90%
04:00 +8°C° 1 mm 2 m/s 746 mmHg 92%
05:00 +8°C° 1 mm 2 m/s 745 mmHg 93%
06:00 +9°C° 1 mm 1 m/s 745 mmHg 95%
07:00 +8°C° 0.3 mm 2 m/s 745 mmHg 94%
08:00 +8°C° 0.3 mm 2 m/s 745 mmHg 93%
09:00 +9°C° 0.3 mm 2 m/s 745 mmHg 92%
10:00 +10°C° 0 mm 2 m/s 745 mmHg 88%
11:00 +11°C° 0 mm 3 m/s 745 mmHg 84%
12:00 +12°C° 0 mm 4 m/s 745 mmHg 79%
13:00 +12°C° 0 mm 4 m/s 745 mmHg 81%
14:00 +12°C° 0 mm 4 m/s 745 mmHg 83%
15:00 +10°C° 0 mm 5 m/s 744 mmHg 85%
16:00 +12°C° 0 mm 5 m/s 744 mmHg 85%
17:00 +12°C° 0 mm 4 m/s 744 mmHg 86%
18:00 +12°C° 0 mm 4 m/s 743 mmHg 87%
19:00 +12°C° 0 mm 4 m/s 743 mmHg 89%
20:00 +11°C° 0 mm 4 m/s 743 mmHg 92%
21:00 +11°C° 0 mm 3 m/s 743 mmHg 94%
22:00 +11°C° 0 mm 3 m/s 743 mmHg 95%
23:00 +10°C° 0 mm 3 m/s 743 mmHg 96%

13 Mai, Joi

Timp Temperatura Precipitaţii Vânt Presiune Umiditate
00:00 +10°C° 0 mm 3 m/s 743 mmHg 97%
01:00 +9°C° 0 mm 3 m/s 743 mmHg 96%
02:00 +9°C° 0 mm 3 m/s 743 mmHg 96%
03:00 +9°C° 0 mm 3 m/s 742 mmHg 95%
04:00 +9°C° 0 mm 3 m/s 743 mmHg 95%
05:00 +9°C° 0 mm 3 m/s 743 mmHg 94%
06:00 +9°C° 0 mm 3 m/s 743 mmHg 94%
07:00 +11°C° 0 mm 3 m/s 743 mmHg 87%
08:00 +13°C° 0 mm 3 m/s 743 mmHg 80%
09:00 +15°C° 0 mm 4 m/s 743 mmHg 73%
10:00 +17°C° 0 mm 4 m/s 743 mmHg 69%
11:00 +18°C° 0 mm 4 m/s 743 mmHg 64%
12:00 +19°C° 0 mm 4 m/s 743 mmHg 59%
13:00 +20°C° 0 mm 4 m/s 742 mmHg 58%
14:00 +20°C° 0 mm 4 m/s 742 mmHg 56%
15:00 +21°C° 0 mm 4 m/s 742 mmHg 55%
16:00 +20°C° 0 mm 4 m/s 742 mmHg 58%
17:00 +20°C° 0 mm 3 m/s 742 mmHg 62%
18:00 +20°C° 0 mm 3 m/s 741 mmHg 65%
19:00 +18°C° 0 mm 3 m/s 741 mmHg 71%
20:00 +17°C° 0 mm 3 m/s 741 mmHg 77%
21:00 +15°C° 0 mm 2 m/s 741 mmHg 83%
22:00 +14°C° 0 mm 3 m/s 741 mmHg 86%
23:00 +14°C° 0 mm 3 m/s 741 mmHg 89%

14 Mai, Vineri

Timp Temperatura Precipitaţii Vânt Presiune Umiditate
00:00 +13°C° 0 mm 3 m/s 740 mmHg 92%
01:00 +13°C° 0 mm 3 m/s 740 mmHg 92%
02:00 +13°C° 0 mm 3 m/s 740 mmHg 93%
03:00 +13°C° 0 mm 3 m/s 740 mmHg 93%
04:00 +13°C° 0 mm 3 m/s 740 mmHg 93%
05:00 +13°C° 0 mm 3 m/s 740 mmHg 92%
06:00 +13°C° 0 mm 3 m/s 740 mmHg 92%
07:00 +15°C° 0 mm 4 m/s 740 mmHg 86%
08:00 +16°C° 0 mm 5 m/s 740 mmHg 80%
09:00 +19°C° 0 mm 5 m/s 740 mmHg 74%
10:00 +20°C° 0 mm 6 m/s 740 mmHg 70%
11:00 +21°C° 0 mm 6 m/s 739 mmHg 66%
12:00 +22°C° 0 mm 7 m/s 739 mmHg 63%
13:00 +23°C° 0 mm 7 m/s 739 mmHg 63%
14:00 +23°C° 0 mm 7 m/s 739 mmHg 63%
15:00 +24°C° 0 mm 6 m/s 739 mmHg 62%
16:00 +23°C° 0 mm 6 m/s 739 mmHg 65%
17:00 +23°C° 0 mm 6 m/s 738 mmHg 67%
18:00 +22°C° 0 mm 5 m/s 738 mmHg 69%
19:00 +21°C° 0 mm 5 m/s 738 mmHg 74%
20:00 +20°C° 0 mm 4 m/s 738 mmHg 79%
21:00 +18°C° 0 mm 3 m/s 738 mmHg 84%
22:00 +18°C° 0.1 mm 3 m/s 738 mmHg 86%
23:00 +17°C° 0.1 mm 3 m/s 738 mmHg 87%
Arată mai mult

Formular de consimțământ

Meteoprog și furnizorii noștri de servicii pot stoca și accesa date personale, precum cookies, identificatori de dispozitiv sau alte tehnologii similare pe dispozitivul dumneavoastră și procesa astfel de date pentru a personaliza conținutul și reclamele, dar și pentru a oferi caracteristici de social media și pentru a analiza traficul.

  • Stocarea și/sau accesarea informațiilor pe dispozitivul dumneavoastră

    Cookies, identificatori de dispozitiv sau alte informații pot fi stocate sau accesate pe dispozitiv în scopurile indicate mai sus.

  • Reclame și conținut personalizat, evaluarea reclamelor și a conținutului, informații despre audiențe și dezvoltarea produselor

    Reclamele și conținutul pot fi personalizate pe baza unui profil. Pot fi adăugate date suplimentare pentru a personaliza mai bine reclamele și conținutul. Performanța reclamelor și conținutului poate fi măsurată. Pot fi obținute informații despre utilizatorii care au văzut reclamele și conținutul. Aceste date pot fi utilizate pentru a dezvolta sau îmbunătăți experiența utilizatorilor, sistemele și software-ul.

Dând clic pe ‘Sunt de acord’, permiteți utilizarea cookie-urilor menționate, a identificatorilor de dispozitiv, balizelor web sau altor tehnologii similare. Setările pot fi modificate din browser-ul dispozitivului dumneavoastră.

În anumite scopuri, interesele legitime pot prima asupra consimțământului. Puteți citi mai multe informații în acest sens în Politica privind Confidențialitatea Datelor și Cookie.